Marshfield, WI

10:13 PM CDT on October 18, 2019 (GMT -0500)
Marshfield Municipal

Weather History for KMFI - August, 2019

Change the Weather History Date:

Wednesday, August 21, 2019

  Actual Average Record
Temperature  
Mean Temperature 64 °F -  
Max Temperature 75 °F 78 °F 97 °F (1955)
Min Temperature 54 °F 54 °F 35 °F (2004)
Growing Degree Days 14 (Base 50)    
Moisture  
Dew Point 55 °F    
Average Humidity 70    
Maximum Humidity 93    
Minimum Humidity 43    
Precipitation  
Precipitation 0.00 in - - ()
Sea Level Pressure  
Sea Level Pressure 29.99 in    
Wind  
Wind Speed 7 mph (NNW)    
Max Wind Speed 16 mph    
Max Gust Speed 23 mph    
Visibility 10 miles    
Events      
Averages and records for this station are not official NWS values.
T = Trace of Precipitation, MM = Missing Value Source: NWS Daily Summary

Daily Weather History Graph

Daily Weather History Graph

Search for Another Location

Airport or City:

Astronomy

Aug. 21, 2019 Rise Set
Actual Time 6:10 AM CDT 7:56 PM CDT
Civil Twilight 5:38 AM CDT 8:27 PM CDT
Nautical Twilight 5:00 AM CDT 9:05 PM CDT
Astronomical Twilight 4:19 AM CDT 9:46 PM CDT
Moon 11:00 PM CDT (8/21) 11:59 AM CDT (8/21)
Length of Visible Light 14h 48m
Length of Day
13h 46m
Waning Gibbous, 69% of the Moon is Illuminated
Aug 21
Waning Gibbous
Aug 23
Last Quarter
Aug 30
New
Sep 5
First Quarter
Sep 13
Full

Hourly Weather History & Observations

Time (CDT) Temp. Dew Point Humidity Pressure Visibility Wind Dir Wind Speed Gust Speed Precip Events Conditions
12:54 AM 64.9 °F 62.1 °F 90% 29.95 in 10.0 mi Calm Calm - N/A   Clear
1:54 AM 62.1 °F 60.1 °F 93% 29.96 in 10.0 mi WNW 4.6 mph - N/A   Clear
2:54 AM 66.0 °F 63.0 °F 90% 29.96 in 10.0 mi WNW 9.2 mph - N/A   Mostly Cloudy
3:54 AM 66.0 °F 63.0 °F 90% 29.94 in 10.0 mi North 9.2 mph - N/A   Clear
4:54 AM 64.9 °F 61.0 °F 87% 29.93 in 10.0 mi North 6.9 mph - N/A   Clear
5:54 AM 63.0 °F 60.1 °F 90% 29.91 in 10.0 mi North 10.4 mph - N/A   Clear
6:54 AM 61.0 °F 59.0 °F 93% 29.98 in 10.0 mi NNW 8.1 mph - N/A   Clear
7:54 AM 64.0 °F 60.1 °F 87% 30.00 in 10.0 mi NNW 8.1 mph - N/A   Clear
8:54 AM 68.0 °F 59.0 °F 73% 30.01 in 10.0 mi NNW 10.4 mph - N/A   Clear
9:54 AM 70.0 °F 57.0 °F 63% 30.01 in 10.0 mi NNW 12.7 mph - N/A   Clear
10:54 AM 71.1 °F 54.0 °F 55% 30.00 in 10.0 mi NNW 10.4 mph - N/A   Clear
11:54 AM 71.1 °F 54.0 °F 55% 30.02 in 10.0 mi NW 15.0 mph - N/A   Clear
12:54 PM 73.0 °F 54.0 °F 51% 30.02 in 10.0 mi NW 16.1 mph 23.0 mph N/A   Partly Cloudy
1:54 PM 73.9 °F 52.0 °F 46% 30.00 in 10.0 mi NNW 13.8 mph 23.0 mph N/A   Clear
2:54 PM 75.0 °F 51.1 °F 43% 30.00 in 10.0 mi NW 15.0 mph 20.7 mph N/A   Clear
3:54 PM 73.9 °F 51.1 °F 45% 29.99 in 10.0 mi NNW 15.0 mph 21.9 mph N/A   Partly Cloudy
4:54 PM 73.0 °F 50.0 °F 44% 30.01 in 10.0 mi NW 12.7 mph - N/A   Clear
5:54 PM 70.0 °F 51.1 °F 51% 30.01 in 10.0 mi NW 9.2 mph - N/A   Partly Cloudy
6:54 PM 69.1 °F 50.0 °F 51% 30.00 in 10.0 mi NNW 11.5 mph - N/A   Partly Cloudy
7:54 PM 63.0 °F 52.0 °F 67% 30.00 in 10.0 mi NNW 5.8 mph - N/A   Scattered Clouds
8:54 PM 61.0 °F 50.0 °F 67% 30.01 in 10.0 mi NNW 5.8 mph - N/A   Clear
9:54 PM 59.0 °F 51.1 °F 75% 30.03 in 10.0 mi Calm Calm - N/A   Clear
10:54 PM 54.0 °F 51.1 °F 90% 30.04 in 10.0 mi NW 3.5 mph - N/A   Clear
11:54 PM 55.0 °F 51.1 °F 86% 30.04 in 10.0 mi Calm Calm - N/A   Clear